[[{"header":{"parameterUnit":"m.s-1","parameterCategory":1,"la1":30.2991,"la2":30.254,"lo1":-89.0895,"lo2":-89.0444,"dy":0.0017,"dx":0.0017,"nx":28,"ny":28,"refTime":"2023-08-02T21:00:00:Z","depth":0,"parameterNumber":2,"parameterNumberName":"U-component_of_WINDS"},"data":[0,0,0,0,0,0,0,0,0,0,0,0,0,0,0,0,0,0,0,0,0,0,0,0,0,0,0,0,0,0,0,0,0,0,0,0,0,0,0,0,0,0,0,0,0,0,0,0,0,0,0,0,0,0,0,0,0,0,-0.4987,-0.4987,0,-0.4962,-0.4962,-0.4962,-0.4929,-0.4928,-0.4928,-0.4927,-0.4902,-0.4902,-0.4901,0,0,0,0,0,0,0,0,0,0,0,0,0,-0.5005,-0.5005,-0.4987,-0.4987,-0.4987,-0.4963,-0.4962,-0.4962,-0.4929,-0.4928,-0.4927,-0.4927,-0.4902,-0.4902,-0.4901,0,0,0,0,0,0,0,0,0,0,0,0,0,-0.4991,-0.5005,-0.4987,-0.4967,-0.4965,-0.4963,-0.4962,-0.4962,-0.4929,-0.4928,-0.4927,-0.4926,-0.4902,-0.4902,-0.4901,-0.4917,0,0,-0.4901,-0.4901,0,0,0,0,0,0,0,0,-0.4992,-0.499,-0.497,-0.4969,-0.4966,-0.4948,-0.4959,-0.4947,-0.4929,-0.4943,-0.4927,-0.4926,-0.4918,-0.4916,-0.4913,-0.4915,-0.4914,-0.4901,-0.49,-0.49,-0.49,0,0,0,0,0,0,0,-0.4993,-0.4991,-0.4977,-0.497,-0.4968,-0.4959,-0.4956,-0.4957,-0.4935,-0.4941,-0.4939,-0.4936,-0.4916,-0.4914,-0.4912,-0.4914,-0.4901,-0.49,-0.49,-0.49,-0.4927,-0.4928,0,0,0,0,0,0,-0.4997,-0.4992,-0.4978,-0.4977,-0.4977,-0.496,-0.4956,-0.4955,-0.4935,-0.4931,-0.4937,-0.4935,-0.4914,-0.4913,-0.4911,-0.4928,-0.49,-0.49,-0.49,-0.4926,-0.4927,-0.4928,0,0,0,0,0,0,-0.4997,-0.4996,-0.4979,-0.4984,-0.4981,-0.496,-0.4959,-0.4955,-0.4952,-0.4932,-0.4928,-0.4938,-0.4914,-0.4912,-0.4916,-0.4927,-0.49,-0.49,-0.4925,-0.4926,-0.4928,-0.4962,0,0,0,0,0,0,-0.4998,-0.4996,-0.5002,-0.4984,-0.4981,-0.4984,-0.4959,-0.4955,-0.4951,-0.4948,-0.4932,-0.4928,-0.4913,-0.4916,-0.4915,-0.4926,-0.49,-0.4924,-0.4926,-0.4927,-0.4959,-0.4964,-0.4968,0,0,0,0,0,-0.4999,-0.5012,-0.5002,-0.5001,-0.4987,-0.4985,-0.4983,-0.4965,-0.4952,-0.4958,-0.4945,-0.4929,-0.4926,-0.4917,-0.4916,-0.4926,-0.4923,-0.4925,-0.4927,-0.4958,-0.4963,-0.4968,0,0,0,0,0,0,-0.5032,-0.501,-0.4998,-0.5007,-0.4998,-0.4979,-0.4985,-0.4971,-0.4965,-0.4963,-0.4941,-0.4937,-0.4944,-0.4935,-0.4926,-0.494,-0.4922,-0.4924,-0.4945,-0.4951,-0.4955,-0.4957,-0.4899,0,0,0,0,0,-0.504,-0.504,-0.502,-0.503,-0.5026,-0.5006,-0.5004,-0.4991,-0.4981,-0.4977,-0.4965,-0.4956,-0.4952,-0.4951,-0.4947,-0.4958,-0.4954,-0.4965,-0.4969,-0.4972,-0.4974,-0.498,-0.4984,-0.4934,-0.4934,-0.4934,0,0,-0.5058,-0.5045,-0.5046,-0.5036,-0.5028,-0.5028,-0.5003,-0.5005,-0.5004,-0.4977,-0.498,-0.4971,-0.4959,-0.4967,-0.4969,-0.496,-0.4987,-0.4975,-0.4978,-0.4978,-0.4982,-0.4987,-0.4991,-0.4936,-0.4936,-0.4935,0,0,-0.5089,-0.508,-0.5086,-0.5079,-0.5066,-0.5053,-0.5055,-0.5038,-0.5031,-0.5033,-0.5013,-0.5012,-0.5007,-0.5,-0.4995,-0.5024,-0.5009,-0.5023,-0.5045,-0.5051,-0.5055,-0.5058,-0.5069,-0.5073,-0.5025,-0.5025,-0.5025,0,-0.5112,-0.5112,-0.5092,-0.5094,-0.509,-0.5066,-0.5072,-0.5066,-0.5052,-0.505,-0.504,-0.5033,-0.5023,-0.5029,-0.5036,-0.5033,-0.5034,-0.5025,-0.5056,-0.5059,-0.5062,-0.5072,-0.5076,-0.5027,-0.5027,-0.5026,-0.5026,0,-0.5141,-0.5141,-0.5148,-0.5136,-0.5132,-0.5137,-0.5118,-0.5117,-0.5104,-0.5092,-0.5095,-0.5082,-0.5075,-0.5075,-0.5063,-0.5079,-0.5074,-0.506,-0.5041,-0.5069,-0.5078,-0.5081,-0.503,-0.5029,-0.5028,-0.5028,0,0,-0.5193,-0.517,-0.5173,-0.5168,-0.5152,-0.5151,-0.5155,-0.5148,-0.5148,-0.5139,-0.5142,-0.5138,-0.5125,-0.512,-0.5106,-0.5111,-0.5134,-0.5096,-0.5095,-0.5104,-0.5152,-0.5164,-0.5168,-0.5124,-0.5125,-0.5125,-0.5153,0,-0.5222,-0.5227,-0.5209,-0.5219,-0.5218,-0.5195,-0.5198,-0.5188,-0.5177,-0.5175,-0.5163,-0.5161,-0.5143,-0.514,-0.5144,-0.5131,-0.5144,-0.5128,-0.5126,-0.5127,-0.5131,-0.5173,-0.5185,-0.5212,-0.5157,-0.5157,-0.5158,0,-0.5257,-0.5251,-0.526,-0.5244,-0.5243,-0.5246,-0.5239,-0.5237,-0.5226,-0.5217,-0.5212,-0.5196,-0.5198,-0.518,-0.5182,-0.5172,-0.517,-0.5164,-0.5164,-0.5164,-0.5144,-0.5174,-0.522,-0.5225,-0.5163,-0.5162,-0.5162,0,-0.5295,-0.5289,-0.5294,-0.529,-0.5271,-0.5273,-0.5266,-0.5254,-0.5251,-0.5244,-0.5242,-0.5235,-0.5232,-0.5227,-0.521,-0.5198,-0.5215,-0.5195,-0.5208,-0.5209,-0.5213,-0.5213,-0.526,-0.5211,-0.5211,-0.5211,-0.5211,0,-0.533,-0.5337,-0.5311,-0.5314,-0.5321,-0.53,-0.5307,-0.5297,-0.5287,-0.5287,-0.5266,-0.5267,-0.5244,-0.5242,-0.5228,-0.5233,-0.5231,-0.5225,-0.5221,-0.5227,-0.5228,-0.5226,-0.5224,-0.5212,-0.5212,-0.5211,-0.5211,0,-0.5374,-0.5357,-0.5361,-0.5342,-0.5338,-0.5344,-0.5328,-0.533,-0.5318,-0.5319,-0.5318,-0.5298,-0.5295,-0.5277,-0.527,-0.526,-0.527,-0.5262,-0.5274,-0.5272,-0.5286,-0.5286,-0.5334,-0.534,-0.5286,-0.5287,-0.5287,0,-0.5398,-0.5403,-0.5385,-0.5384,-0.5377,-0.5376,-0.5373,-0.5352,-0.535,-0.5337,-0.5341,-0.5336,-0.5332,-0.5328,-0.5313,-0.5307,-0.53,-0.5317,-0.5299,-0.5305,-0.5301,-0.5301,-0.5302,-0.5321,-0.5322,-0.5323,-0.5323,0,-0.5442,-0.5433,-0.543,-0.5423,-0.542,-0.5414,-0.5407,-0.5407,-0.5384,-0.5383,-0.5379,-0.5376,-0.5368,-0.5364,-0.5356,-0.5348,-0.5332,-0.5329,-0.5332,-0.5338,-0.5345,-0.5342,-0.5286,-0.5328,-0.5327,-0.5327,-0.5327,-0.5327,-0.5477,-0.548,-0.5468,-0.5465,-0.5457,-0.5451,-0.5452,-0.544,-0.5437,-0.5429,-0.5417,-0.5416,-0.5404,-0.5391,-0.5385,-0.5383,-0.5374,-0.5378,-0.5379,-0.538,-0.5384,-0.5345,-0.5381,-0.5381,-0.5381,-0.5381,-0.5381,0,-0.552,-0.5512,-0.5509,-0.5499,-0.5497,-0.5482,-0.5473,-0.5472,-0.5471,-0.5461,-0.5457,-0.5453,-0.5449,-0.5434,-0.5428,-0.543,-0.5422,-0.5429,-0.5429,-0.5427,-0.5392,-0.5391,-0.5435,-0.5435,-0.5435,-0.5435,-0.5435,-0.5435,-0.5543,-0.5548,-0.5537,-0.5538,-0.5529,-0.5528,-0.5524,-0.5518,-0.551,-0.5507,-0.5504,-0.5494,-0.5482,-0.5475,-0.547,-0.5466,-0.5465,-0.5474,-0.5467,-0.5435,-0.543,-0.5425,-0.5423,-0.5474,-0.5474,-0.5503,-0.5503,-0.5503]},{"header":{"parameterUnit":"m.s-1","parameterCategory":1,"la1":30.2991,"la2":30.254,"lo1":-89.0895,"lo2":-89.0444,"dy":0.0017,"dx":0.0017,"nx":28,"ny":28,"refTime":"2023-08-02T21:00:00:Z","depth":0,"parameterNumber":3,"parameterNumberName":"V-component_of_WINDS"},"data":[0,0,0,0,0,0,0,0,0,0,0,0,0,0,0,0,0,0,0,0,0,0,0,0,0,0,0,0,0,0,0,0,0,0,0,0,0,0,0,0,0,0,0,0,0,0,0,0,0,0,0,0,0,0,0,0,0,0,-1.4003,-1.4004,0,-1.4098,-1.4099,-1.41,-1.4106,-1.4105,-1.4104,-1.4103,-1.4204,-1.4208,-1.4212,0,0,0,0,0,0,0,0,0,0,0,0,0,-1.3832,-1.3835,-1.4003,-1.4004,-1.4005,-1.4098,-1.4099,-1.41,-1.4106,-1.4105,-1.4103,-1.4102,-1.4203,-1.4208,-1.4212,0,0,0,0,0,0,0,0,0,0,0,0,0,-1.3914,-1.3836,-1.4003,-1.4019,-1.4022,-1.4098,-1.4099,-1.4101,-1.4106,-1.4105,-1.4103,-1.4101,-1.4202,-1.4207,-1.4213,-1.428,0,0,-1.423,-1.4232,0,0,0,0,0,0,0,0,-1.391,-1.3921,-1.4016,-1.4018,-1.4021,-1.4088,-1.4076,-1.4161,-1.4107,-1.4074,-1.4103,-1.4101,-1.4167,-1.4176,-1.4197,-1.4285,-1.4289,-1.423,-1.4234,-1.4236,-1.4238,0,0,0,0,0,0,0,-1.3904,-1.3917,-1.4041,-1.4017,-1.402,-1.4023,-1.4033,-1.4092,-1.4129,-1.4077,-1.4078,-1.4089,-1.4169,-1.4192,-1.42,-1.4291,-1.423,-1.4235,-1.4239,-1.4241,-1.444,-1.4442,0,0,0,0,0,0,-1.3894,-1.3912,-1.4038,-1.4044,-1.396,-1.4028,-1.4039,-1.4068,-1.4128,-1.4136,-1.409,-1.4088,-1.4183,-1.4193,-1.4203,-1.4287,-1.4236,-1.4241,-1.4244,-1.4438,-1.444,-1.4442,0,0,0,0,0,0,-1.3891,-1.3906,-1.4034,-1.3978,-1.3994,-1.4033,-1.4066,-1.4071,-1.4094,-1.4138,-1.4145,-1.4106,-1.4182,-1.4195,-1.4261,-1.4291,-1.4244,-1.4249,-1.4436,-1.4439,-1.4441,-1.4455,0,0,0,0,0,0,-1.3886,-1.3904,-1.3929,-1.3978,-1.3997,-1.4089,-1.4067,-1.4074,-1.4103,-1.4103,-1.4156,-1.4163,-1.4182,-1.4253,-1.4266,-1.4298,-1.4253,-1.4433,-1.4437,-1.444,-1.4452,-1.4458,-1.4463,0,0,0,0,0,-1.388,-1.393,-1.393,-1.3946,-1.4029,-1.409,-1.4101,-1.4121,-1.4106,-1.4132,-1.416,-1.4161,-1.4285,-1.4259,-1.4275,-1.4308,-1.4431,-1.4436,-1.444,-1.445,-1.4457,-1.4463,0,0,0,0,0,0,-1.3885,-1.3937,-1.3938,-1.4005,-1.4043,-1.4091,-1.4125,-1.4128,-1.4172,-1.417,-1.4193,-1.4205,-1.4271,-1.4296,-1.4266,-1.4378,-1.4357,-1.4364,-1.4359,-1.4366,-1.4371,-1.4365,-1.4258,0,0,0,0,0,-1.3894,-1.3938,-1.3981,-1.4037,-1.4055,-1.4087,-1.4114,-1.4126,-1.4167,-1.4183,-1.4216,-1.4257,-1.4305,-1.4337,-1.4384,-1.4455,-1.4468,-1.4486,-1.4492,-1.4496,-1.4503,-1.4545,-1.4554,-1.4457,-1.4457,-1.4457,0,0,-1.3913,-1.3947,-1.3973,-1.4039,-1.4069,-1.4116,-1.41,-1.415,-1.4186,-1.4191,-1.4255,-1.4281,-1.4328,-1.4397,-1.443,-1.4421,-1.4533,-1.4502,-1.4505,-1.451,-1.455,-1.4559,-1.4567,-1.446,-1.4459,-1.4459,0,0,-1.3972,-1.4001,-1.4051,-1.4082,-1.4128,-1.4149,-1.4161,-1.4208,-1.4225,-1.4289,-1.4294,-1.4337,-1.442,-1.4453,-1.4481,-1.4553,-1.4556,-1.4568,-1.4597,-1.4637,-1.4645,-1.4652,-1.4679,-1.4689,-1.4574,-1.4574,-1.4574,0,-1.3991,-1.406,-1.4077,-1.4127,-1.4156,-1.4162,-1.4214,-1.4243,-1.4303,-1.4324,-1.4312,-1.4416,-1.4448,-1.4526,-1.4543,-1.4565,-1.4581,-1.4563,-1.4642,-1.4649,-1.4656,-1.4683,-1.4693,-1.4575,-1.4575,-1.4575,-1.4575,0,-1.4082,-1.4129,-1.4164,-1.422,-1.4253,-1.4304,-1.433,-1.4362,-1.4371,-1.4393,-1.4459,-1.4497,-1.4552,-1.4571,-1.4581,-1.4651,-1.4644,-1.4637,-1.4617,-1.4666,-1.4692,-1.4702,-1.4577,-1.4577,-1.4576,-1.4576,0,0,-1.4149,-1.4212,-1.4225,-1.4251,-1.4302,-1.434,-1.4392,-1.4444,-1.4472,-1.4512,-1.4557,-1.4626,-1.462,-1.4652,-1.4665,-1.47,-1.4756,-1.4689,-1.469,-1.4702,-1.4838,-1.4845,-1.4856,-1.4758,-1.476,-1.4761,-1.4835,0,-1.4215,-1.4305,-1.4322,-1.4401,-1.4446,-1.4452,-1.4497,-1.4534,-1.4555,-1.4598,-1.4623,-1.4672,-1.4659,-1.4679,-1.4713,-1.4742,-1.4784,-1.4737,-1.4802,-1.4804,-1.4792,-1.4869,-1.4876,-1.4944,-1.4845,-1.4846,-1.4848,0,-1.4305,-1.4346,-1.4429,-1.4475,-1.4494,-1.4534,-1.4584,-1.4624,-1.4667,-1.4681,-1.4715,-1.4725,-1.478,-1.4756,-1.4833,-1.48,-1.4828,-1.4846,-1.4849,-1.4858,-1.483,-1.4882,-1.4966,-1.4977,-1.4863,-1.4862,-1.4861,0,-1.4347,-1.4424,-1.4484,-1.4506,-1.456,-1.4588,-1.4612,-1.4653,-1.4683,-1.4727,-1.4748,-1.4798,-1.4826,-1.4865,-1.4888,-1.4868,-1.4965,-1.4942,-1.498,-1.4979,-1.5002,-1.5,-1.5093,-1.5016,-1.5016,-1.5015,-1.5015,0,-1.4421,-1.4472,-1.4504,-1.4541,-1.4599,-1.4618,-1.4676,-1.47,-1.4736,-1.4779,-1.4787,-1.4828,-1.4855,-1.49,-1.4918,-1.4981,-1.4993,-1.5007,-1.5012,-1.5007,-1.5006,-1.5027,-1.5024,-1.5018,-1.5017,-1.5017,-1.5016,0,-1.448,-1.4503,-1.4569,-1.4614,-1.4626,-1.4667,-1.4707,-1.4744,-1.4765,-1.482,-1.4834,-1.4868,-1.4922,-1.4948,-1.5014,-1.5027,-1.5098,-1.5099,-1.5084,-1.5086,-1.5123,-1.512,-1.5235,-1.5252,-1.5161,-1.5162,-1.5162,0,-1.4526,-1.4565,-1.4614,-1.4643,-1.4667,-1.4713,-1.4744,-1.4765,-1.4797,-1.4848,-1.488,-1.4933,-1.4977,-1.5062,-1.5094,-1.5146,-1.5149,-1.5186,-1.5157,-1.5152,-1.5152,-1.515,-1.5155,-1.5192,-1.5192,-1.5193,-1.5194,0,-1.4607,-1.4616,-1.4659,-1.4707,-1.4743,-1.4782,-1.482,-1.4844,-1.4871,-1.4907,-1.4961,-1.4994,-1.5062,-1.5116,-1.5169,-1.5196,-1.52,-1.5202,-1.5214,-1.5211,-1.5201,-1.5209,-1.51,-1.52,-1.5199,-1.5199,-1.5198,-1.5198,-1.4662,-1.4698,-1.4738,-1.4786,-1.4817,-1.4852,-1.4889,-1.4915,-1.4959,-1.5015,-1.5025,-1.5082,-1.5125,-1.5197,-1.5225,-1.5272,-1.5264,-1.528,-1.5285,-1.5289,-1.5292,-1.5192,-1.5281,-1.5281,-1.5281,-1.5281,-1.5281,0,-1.4745,-1.4771,-1.4815,-1.4867,-1.4906,-1.4904,-1.4946,-1.4979,-1.5029,-1.5067,-1.511,-1.5173,-1.5225,-1.526,-1.5313,-1.5344,-1.5347,-1.5357,-1.5357,-1.5363,-1.5295,-1.5281,-1.5354,-1.5354,-1.5354,-1.5354,-1.5354,-1.5354,-1.4793,-1.4853,-1.4867,-1.4944,-1.4969,-1.5025,-1.5049,-1.5083,-1.5114,-1.5182,-1.5225,-1.5247,-1.5285,-1.5341,-1.5389,-1.5398,-1.5418,-1.5429,-1.5438,-1.5375,-1.5368,-1.536,-1.5347,-1.5432,-1.5433,-1.5502,-1.5503,-1.5504]}]]